DAL542 KSEA-KATL

Flight info

Callsign DAL542
Flight time N/A
Altitude 39000
Route MONTN2 SEA NORMY J90 MWH KU06M KU87S KD75Y KK60E FAM BNA NEWBB IHAVE MTHEW CHPPR1
Aircraft A339/H-SADE1E2E3GHIJ3J5M1P2RWXY/LB2D1

Departure

Time 2026-05-07 21:15
Airport Seattle–Tacoma International Airport (KSEA)

Arrival

Time N/A
Airport Hartsfield Jackson Atlanta International Airport (KATL)
Time Latitude Longitude Altitude Speed Heading
2026-05-07 20:50 47.43792 -122.30335 444 ft 0 kts 17°
2026-05-07 21:01 47.43783 -122.30340 444 ft 2 kts 17°
2026-05-07 21:01 47.43769 -122.30346 444 ft 2 kts 17°
2026-05-07 21:01 47.43755 -122.30353 444 ft 2 kts 25°
2026-05-07 21:02 47.43742 -122.30364 444 ft 2 kts 42°
2026-05-07 21:02 47.43732 -122.30381 444 ft 2 kts 56°
2026-05-07 21:02 47.43724 -122.30400 444 ft 2 kts 70°
2026-05-07 21:02 47.43721 -122.30421 444 ft 2 kts 84°
2026-05-07 21:03 47.43721 -122.30433 444 ft 1 kts 91°
2026-05-07 21:03 47.43721 -122.30435 444 ft 0 kts 91°
2026-05-07 21:05 47.43721 -122.30433 444 ft 0 kts 91°
2026-05-07 21:05 47.43720 -122.30411 444 ft 3 kts 91°
2026-05-07 21:05 47.43721 -122.30354 444 ft 7 kts 84°
2026-05-07 21:05 47.43724 -122.30328 444 ft 8 kts 84°
2026-05-07 21:06 47.43737 -122.30227 444 ft 11 kts 77°
2026-05-07 21:06 47.43758 -122.30096 444 ft 14 kts 76°
2026-05-07 21:06 47.43815 -122.29987 444 ft 14 kts 20°
2026-05-07 21:06 47.43921 -122.29958 444 ft 16 kts 356°
2026-05-07 21:07 47.44005 -122.30060 444 ft 16 kts 316°
2026-05-07 21:07 47.44047 -122.30162 444 ft 11 kts 273°
2026-05-07 21:07 47.44018 -122.30274 444 ft 12 kts 239°
2026-05-07 21:07 47.43992 -122.30395 444 ft 12 kts 265°
2026-05-07 21:08 47.43991 -122.30530 444 ft 13 kts 271°
2026-05-07 21:08 47.44016 -122.30623 444 ft 9 kts 328°
2026-05-07 21:08 47.44087 -122.30636 444 ft 10 kts 358°
2026-05-07 21:08 47.44166 -122.30637 444 ft 11 kts
2026-05-07 21:09 47.44251 -122.30636 444 ft 12 kts
2026-05-07 21:09 47.44343 -122.30635 444 ft 14 kts
2026-05-07 21:09 47.44450 -122.30634 444 ft 16 kts
2026-05-07 21:09 47.44568 -122.30634 444 ft 17 kts
2026-05-07 21:10 47.44697 -122.30632 444 ft 19 kts
2026-05-07 21:10 47.44832 -122.30631 444 ft 20 kts
2026-05-07 21:10 47.44975 -122.30630 444 ft 21 kts
2026-05-07 21:10 47.45125 -122.30628 444 ft 21 kts
2026-05-07 21:11 47.45270 -122.30626 444 ft 20 kts
2026-05-07 21:11 47.45414 -122.30625 444 ft 20 kts
2026-05-07 21:11 47.45695 -122.30622 444 ft 19 kts
2026-05-07 21:12 47.45831 -122.30621 444 ft 19 kts
2026-05-07 21:12 47.45964 -122.30620 444 ft 18 kts
2026-05-07 21:12 47.46093 -122.30619 444 ft 18 kts
2026-05-07 21:12 47.46219 -122.30617 444 ft 18 kts
2026-05-07 21:13 47.46329 -122.30619 444 ft 8 kts 348°
2026-05-07 21:13 47.46368 -122.30682 444 ft 9 kts 276°
2026-05-07 21:13 47.46332 -122.30760 444 ft 10 kts 207°
2026-05-07 21:13 47.46258 -122.30778 444 ft 12 kts 182°
2026-05-07 21:14 47.46068 -122.30782 444 ft 54 kts 180°
2026-05-07 21:14 47.45464 -122.30786 444 ft 116 kts 181°
2026-05-07 21:14 47.44487 -122.30796 448 ft 165 kts 180°
2026-05-07 21:14 47.43265 -122.30795 837 ft 176 kts 178°
2026-05-07 21:15 47.42114 -122.30699 1620 ft 164 kts 177°
2026-05-07 21:15 47.40954 -122.30634 2121 ft 171 kts 180°
2026-05-07 21:15 47.39759 -122.30707 2508 ft 182 kts 184°
2026-05-07 21:15 47.38421 -122.30828 2763 ft 200 kts 184°
2026-05-07 21:16 47.36978 -122.30927 3058 ft 216 kts 182°
2026-05-07 21:16 47.35422 -122.30992 3376 ft 235 kts 181°
2026-05-07 21:16 47.33768 -122.30724 3764 ft 250 kts 154°
2026-05-07 21:16 47.32509 -122.28916 4138 ft 266 kts 114°
2026-05-07 21:17 47.32038 -122.26277 4807 ft 269 kts 92°
2026-05-07 21:17 47.32332 -122.23583 5555 ft 269 kts 72°
2026-05-07 21:17 47.32894 -122.20976 6234 ft 273 kts 71°
2026-05-07 21:17 47.33481 -122.18296 6914 ft 277 kts 71°
2026-05-07 21:18 47.34051 -122.15650 7583 ft 280 kts 71°
2026-05-07 21:18 47.34640 -122.12863 8284 ft 284 kts 71°
2026-05-07 21:18 47.35224 -122.10066 8982 ft 287 kts 71°
2026-05-07 21:18 47.35806 -122.07253 9668 ft 291 kts 71°
2026-05-07 21:19 47.36397 -122.04384 10330 ft 295 kts 71°
2026-05-07 21:19 47.37007 -122.01414 10709 ft 310 kts 72°
2026-05-07 21:19 47.37643 -121.98313 11013 ft 328 kts 72°
2026-05-07 21:19 47.38318 -121.95011 11376 ft 342 kts 72°
2026-05-07 21:20 47.39010 -121.91611 11999 ft 348 kts 72°
2026-05-07 21:20 47.39699 -121.88213 12710 ft 351 kts 72°
2026-05-07 21:20 47.40402 -121.84734 13408 ft 354 kts 72°
2026-05-07 21:20 47.41107 -121.81239 14085 ft 358 kts 71°
2026-05-07 21:21 47.41811 -121.77753 14746 ft 361 kts 71°
2026-05-07 21:21 47.42468 -121.74118 15413 ft 366 kts 76°